Wind_Speed
17 14 11 8 7 9 7 5 7 7 8 7 5 3 2 1 1 1 1 1 2 2 2 3 2 1 4 7 7 8 8 11 9 7 17 15 16 16 16 17 18 19 18
16 13 9 8 10 9 8 8 7 9 6 5 5 4 4 2 1 1 1 1 2 3 4 4 4 3 4 5 7 8 11 9 18 17 17 12 16 15 17 19 19 17 16
15 13 14 13 12 9 9 9 10 8 8 7 5 6 6 6 6 5 4 4 4 4 5 4 4 4 5 6 7 9 11 11 18 19 13 17 17 18 19 16 16 16 13
10 9 11 13 13 11 11 10 8 8 8 7 7 5 5 7 7 7 5 4 5 4 5 6 6 5 4 5 7 8 8 10 12 17 16 15 17 18 19 20 16 12 13
11 12 12 11 10 11 12 11 10 9 7 7 6 5 3 2 4 5 6 6 5 5 5 6 7 6 5 4 5 7 9 10 14 16 14 14 15 19 18 12 13 13 11
15 14 13 12 12 13 14 13 10 9 9 9 7 4 4 3 2 2 4 3 4 4 5 5 6 7 5 4 5 8 8 11 13 13 12 15 16 16 14 16 15 15 11
16 14 14 13 14 14 13 12 11 8 9 9 9 7 3 4 5 4 3 2 1 1 2 3 4 5 6 5 6 7 7 9 10 11 13 16 16 20 21 18 16 14 7
17 14 15 15 15 14 14 13 14 12 10 10 10 10 8 8 9 8 7 5 5 4 2 1 3 4 4 5 6 5 5 6 8 7 9 14 14 22 24 19 17 12 7
14 17 19 17 17 15 14 12 11 11 11 10 9 10 10 9 10 10 7 7 5 4 3 3 2 3 5 6 6 6 6 5 6 8 10 11 13 17 17 15 17 13 7
27 24 20 18 17 15 13 10 10 11 11 10 10 11 12 10 12 14 13 12 8 7 6 6 6 6 7 6 5 7 8 8 8 9 10 10 12 16 18 15 16 16 13
29 25 24 21 18 17 13 12 13 13 11 11 11 10 11 13 13 15 15 13 11 9 8 8 9 10 10 9 8 7 6 10 12 9 9 9 10 12 12 13 10 13 12
23 26 25 23 17 15 13 13 16 13 14 13 12 10 12 12 16 17 19 19 15 13 12 10 10 10 12 11 10 10 9 12 11 11 11 10 10 10 10 10 12 12 11
20 22 21 19 16 17 16 18 17 14 15 14 13 12 15 13 14 20 20 21 21 21 20 17 13 12 14 15 14 12 13 13 13 13 13 12 12 10 10 10 10 10 11
16 16 24 23 16 16 18 23 16 15 16 16 15 15 13 12 13 15 20 22 23 24 24 21 17 15 18 18 18 19 16 16 16 15 14 13 12 12 13 12 11 10 9
15 13 13 16 18 19 23 20 18 17 17 13 16 16 14 12 12 14 17 24 25 26 26 22 20 18 20 19 20 15 17 18 19 18 17 16 16 16 16 15 14 13 13
14 11 8 7 8 13 15 10 11 11 8 6 4 5 8 11 12 15 14 16 17 22 22 23 25 26 23 26 23 20 19 22 22 20 19 19 19 19 18 17 17 16 16
12 18 16 12 5 6 7 8 9 8 7 6 4 3 8 11 12 13 13 14 15 22 22 21 25 24 27 24 26 28 24 25 22 22 19 18 18 19 19 18 18 17 17
12 14 17 4 3 4 4 5 5 6 5 6 5 5 8 11 12 14 12 10 10 12 20 17 21 23 23 25 27 27 23 22 20 20 20 20 18 19 18 19 20 21 21
12 12 10 5 3 3 3 3 3 3 4 7 4 6 5 9 11 11 10 7 8 11 15 19 18 18 22 25 26 26 26 24 26 23 24 22 21 21 21 22 22 23 23
10 10 8 5 3 2 3 4 5 5 7 6 5 5 5 8 8 5 5 6 8 11 13 13 15 17 21 22 23 24 26 24 21 24 22 18 20 22 24 23 23 22 23
3 5 5 5 4 4 5 5 5 5 4 4 4 6 11 13 11 7 6 6 7 7 9 13 15 16 16 17 18 20 24 27 27 26 27 28 25 26 26 25 26 25 25
3 6 7 8 7 7 6 6 6 4 2 4 5 6 8 3 5 5 5 5 5 6 6 6 7 8 9 12 13 17 20 22 25 25 26 26 28 33 29 28 29 29 29
4 6 7 10 10 8 8 6 3 1 2 4 5 6 7 7 6 7 8 7 7 7 6 7 7 8 8 9 9 10 11 14 17 19 26 32 32 34 31 29 28 31 33
7 6 8 9 11 8 5 4 6 7 6 7 9 10 12 12 12 12 11 10 8 7 6 6 7 8 9 10 11 12 15 15 14 16 19 24 28 29 29 27 26 29 30
7 6 6 4 7 9 9 8 8 8 9 11 11 12 11 12 13 13 12 11 11 10 10 9 9 10 11 12 12 14 14 15 15 17 22 21 21 23 25 25 28 26 28
2 3 5 7 10 12 12 12 13 13 13 12 12 12 11 12 12 11 10 10 9 8 8 10 10 11 14 13 13 14 16 20 21 20 17 20 24 26 27 27 28 29 29
Wind_Direction
163 164 160 165 159 154 150 141 141 142 151 148 144 141 154 191 225 242 272 333 349 6 24 27 16 168 198 199 189 175 174 165 125 115 137 136 129 131 129 129 127 124 122
146 145 137 140 129 148 151 149 148 145 152 156 136 120 114 84 20 94 123 61 43 27 27 36 42 78 148 156 152 159 169 163 148 136 146 142 138 140 136 134 130 128 127
142 153 147 147 148 160 161 154 153 158 157 152 144 131 113 84 75 87 101 98 81 72 51 50 53 69 97 126 146 151 161 159 160 154 146 150 143 147 139 133 131 129 124
142 147 153 164 163 169 162 163 164 162 163 164 153 145 128 108 97 93 86 82 84 73 68 65 58 66 93 128 136 150 152 150 156 155 146 148 151 155 151 145 134 134 128
163 165 184 182 172 174 171 167 170 164 179 172 172 160 155 129 103 100 96 89 77 75 65 61 71 81 90 125 146 157 162 157 161 156 150 155 155 160 166 165 151 148 147
178 175 184 182 183 189 175 165 174 177 180 173 168 168 169 187 200 149 112 94 84 79 79 77 72 67 81 110 138 153 175 167 168 165 166 168 172 175 172 165 158 159 154
177 176 183 178 195 196 176 174 164 194 189 186 186 181 189 218 223 227 215 213 167 131 91 87 99 92 92 104 130 138 158 174 178 183 180 185 179 186 175 171 174 176 175
171 176 177 191 203 199 186 181 171 187 207 210 211 206 200 197 210 230 236 241 249 234 215 175 133 134 126 121 127 134 143 164 184 191 201 199 200 194 192 184 180 176 155
188 173 189 190 201 203 202 185 202 191 206 220 225 217 215 206 208 211 220 235 242 235 243 243 214 172 171 152 153 149 144 148 184 196 187 191 198 192 185 177 179 181 176
189 183 191 191 202 207 210 202 219 219 216 225 232 230 221 218 222 216 213 227 227 223 235 229 222 212 203 192 188 185 179 167 156 151 159 171 174 183 183 186 194 205 207
190 182 192 197 200 209 212 212 224 231 234 234 238 237 236 235 231 226 226 219 230 231 233 227 220 216 215 216 211 204 199 183 172 163 161 162 168 180 195 205 209 220 218
191 189 192 197 202 214 214 229 227 228 234 233 243 245 249 240 240 235 236 236 233 234 241 238 234 226 221 219 218 215 213 192 177 177 178 181 186 192 199 207 221 220 224
191 193 190 193 197 217 227 246 235 224 230 236 237 244 254 242 240 242 236 239 243 247 250 256 256 247 230 224 221 219 209 198 197 193 194 193 190 190 192 200 205 209 216
204 203 196 187 191 208 211 246 234 225 226 233 236 236 250 244 244 241 241 239 239 242 248 252 254 247 236 223 228 219 212 211 207 207 207 204 200 198 202 206 207 204 206
206 210 211 195 191 207 217 217 219 224 225 227 239 245 245 237 253 257 261 253 244 243 242 241 244 238 234 228 224 222 224 228 224 221 220 218 216 217 218 216 214 212 217
176 173 174 160 167 187 190 177 190 200 183 192 204 250 262 262 260 256 250 252 260 257 238 229 230 231 222 225 216 221 223 232 232 230 229 233 233 227 227 215 212 216 222
143 133 112 100 128 151 149 157 165 171 175 221 250 295 305 303 287 276 267 258 255 252 230 226 221 225 231 230 218 223 225 229 227 220 230 233 232 228 214 211 211 216 225
104 91 96 119 194 207 195 193 206 206 212 235 247 276 296 298 287 285 289 281 264 242 236 238 236 233 232 229 234 227 228 232 235 231 230 224 217 216 217 222 224 225 228
93 90 99 123 182 180 195 207 220 219 230 244 242 276 297 296 291 288 293 275 264 259 252 246 246 244 246 249 251 247 245 238 247 243 233 231 225 220 225 230 233 230 230
109 111 121 133 157 181 223 225 211 219 237 248 270 287 258 258 256 262 276 272 263 259 260 262 270 267 262 262 258 253 252 248 236 240 240 238 241 234 231 228 232 233 226
143 150 145 165 198 214 224 226 230 241 268 293 317 305 284 282 291 297 307 304 301 290 277 283 285 281 281 275 266 256 258 258 252 235 242 241 256 243 234 233 234 232 235
252 226 208 211 217 220 230 229 233 232 266 324 326 312 319 288 293 306 318 320 306 297 285 273 278 283 281 276 275 273 268 264 256 251 235 237 245 254 243 236 238 240 234
263 251 244 224 221 221 223 226 234 298 55 40 13 21 25 17 10 8 3 355 342 332 320 307 302 299 299 296 290 275 267 267 262 251 241 239 239 244 245 241 241 240 233
291 278 262 257 226 211 201 150 125 103 99 78 70 58 50 49 44 40 37 32 26 18 6 354 347 347 340 328 314 302 294 287 277 269 259 253 248 248 251 248 245 249 236
273 284 274 229 180 157 134 127 117 103 93 84 76 71 63 59 55 53 54 56 54 50 49 42 23 5 358 353 356 353 341 326 307 287 271 264 262 267 260 254 246 246 252
225 133 125 119 122 121 115 108 100 92 83 72 64 57 46 41 40 39 35 34 30 28 28 34 33 14 15 13 3 357 359 1 358 3 327 287 274 269 261 251 249 242 244
Height
778 784 786 788 790 791 794 798 799 802 804 805 805 807 808 809 808 807 807 806 806 805 803 802 802 801 801 801 802 805 808 810 816 824 825 828 830 832 832 833 833 835 836
778 782 786 791 790 793 795 798 802 803 807 807 806 807 808 808 807 806 806 806 806 805 804 803 802 802 802 802 802 805 808 811 813 820 826 828 830 832 834 835 836 838 840
774 781 781 786 789 796 799 799 801 805 806 807 809 809 809 808 808 808 808 807 807 806 806 805 804 804 802 802 804 806 809 811 814 817 823 827 830 833 836 838 839 841 843
779 784 785 788 790 794 796 801 802 804 807 808 808 810 810 808 809 809 809 809 808 808 807 806 805 804 805 804 805 807 810 813 817 820 823 826 829 834 836 837 840 843 844
780 784 790 794 795 796 798 799 802 803 807 807 808 808 810 812 812 810 809 810 810 810 809 808 805 804 804 805 807 808 811 812 816 819 823 826 828 832 834 838 840 843 845
780 783 792 792 795 798 796 795 800 801 804 805 807 809 810 812 812 812 811 811 811 812 812 810 808 806 806 807 807 809 810 812 814 817 820 824 826 829 833 836 839 841 843
778 783 787 790 797 799 795 795 796 803 804 803 803 804 809 811 812 813 812 812 813 814 814 812 810 808 808 810 809 809 811 812 814 817 819 821 824 826 829 834 837 839 840
772 777 782 789 796 797 794 794 792 798 802 803 803 802 803 805 809 812 812 812 813 813 813 812 811 810 809 810 811 813 813 814 814 817 819 820 822 824 827 830 834 837 839
772 771 781 785 792 793 793 790 795 795 797 801 803 804 804 802 804 808 810 812 813 812 812 812 811 809 809 809 811 813 814 814 814 815 817 819 821 824 828 830 833 836 837
764 768 776 780 786 788 788 789 795 795 794 796 799 801 800 800 801 804 806 809 811 811 809 809 809 810 809 809 811 812 813 814 815 816 817 819 821 824 826 829 830 831 831
756 756 766 774 777 780 782 787 791 793 796 795 796 797 797 797 798 800 804 806 808 809 808 807 806 807 808 809 810 811 812 812 814 816 818 819 821 823 825 826 827 827 827
755 756 761 765 770 775 779 784 786 790 792 791 793 792 794 793 794 796 800 802 803 804 805 805 804 804 805 808 809 809 810 812 813 815 816 817 819 821 822 823 823 825 826
749 752 753 758 763 768 772 778 781 785 787 789 789 789 789 789 789 791 792 795 799 800 800 801 802 802 803 804 806 808 809 810 812 812 813 814 816 818 819 820 821 821 822
746 749 749 750 756 761 762 771 777 779 781 784 782 784 785 785 785 785 786 787 789 792 794 796 798 799 800 801 803 805 807 807 808 809 810 811 813 814 817 819 820 820 820
745 746 749 750 752 757 763 768 769 772 775 777 779 780 781 779 779 780 782 783 782 782 785 788 792 794 796 798 800 802 805 807 806 805 806 807 808 810 811 814 815 817 817
743 745 746 748 751 757 763 765 765 770 772 775 776 778 778 777 775 776 774 775 777 778 778 779 782 784 786 788 792 797 797 799 803 803 802 802 804 805 806 808 810 812 812
743 742 743 748 758 760 761 763 766 769 770 776 774 773 776 776 774 774 770 769 770 772 771 771 771 774 776 776 780 783 788 792 793 792 796 797 798 800 801 802 804 806 808
745 741 739 756 762 764 763 764 765 765 766 772 770 769 770 772 771 770 765 764 765 766 770 770 771 769 771 772 775 777 782 786 786 787 789 787 788 792 796 797 798 800 802
747 748 752 760 766 765 765 765 766 766 766 770 768 766 764 769 769 765 762 760 761 762 764 765 766 765 765 767 770 771 773 775 780 784 784 784 784 785 787 790 791 793 795
752 753 758 761 764 764 765 766 764 765 767 765 764 761 762 765 763 759 756 756 756 756 755 753 756 758 760 760 762 763 764 768 771 777 779 779 781 783 781 780 783 784 786
756 756 756 760 763 763 765 765 765 764 763 760 757 760 765 765 760 757 754 755 756 754 755 755 755 755 756 757 756 757 762 761 764 766 770 771 776 776 775 773 774 775 777
754 756 756 758 759 761 762 762 762 758 756 757 758 761 758 755 755 753 751 750 751 752 751 750 752 755 756 755 753 752 753 754 755 757 759 765 767 769 766 763 764 765 765
754 752 752 752 754 756 758 759 758 758 758 759 761 760 757 756 756 754 752 751 751 751 751 754 753 753 754 754 754 754 752 752 753 752 751 752 756 755 755 753 752 752 752
752 751 750 750 751 752 753 755 757 759 759 759 757 758 759 757 756 753 751 751 751 752 750 752 753 752 753 751 751 751 753 750 748 748 748 747 747 746 744 745 744 744 742
752 750 750 749 749 750 753 755 757 758 758 756 757 756 757 756 754 754 752 752 752 753 752 751 752 752 750 751 749 747 745 745 743 739 741 740 738 739 738 736 734 735 736
749 749 750 750 750 751 753 755 757 758 758 757 757 756 759 759 758 757 758 756 754 754 753 750 750 753 750 748 749 746 745 741 739 736 733 732 731 728 727 726 725 726 725